Volver al catálogo

STARLINK-11357

ActivoComunicacionesVLEO
NORAD 61541·PAYLOAD·🇺🇸 United States

Lanzado Oct 15, 2024 desde Vandenberg Space Force Base

Loading…

Próximos Pases (próximas 24 horas)

TLE

ActualizadoSource: CelesTrak SupGP

Época: Sep 14, 2026, 20:54 UTC

1 61541C 24184K   26257.87131944  .00065497  00000+0  53944-3 0  2570
2 61541  53.1569  23.9778 0001033  75.7801  16.9612 15.69680416    11

Sigue STARLINK-11357 en tiempo real con AllMySat

Download on the App Store